Domov               UVHVVR             MKGP            O straneh              
ZDRAVSTVENO VARSTVO RASTLIN
  MREŽA AGROMET. POSTAJ
 ► PROGNOSTIČNA OBVESTILA
AGROMETEOROLOŠKI PODATKI -
ARSO
OBVLADOVANJE TVEGANJ ZARADI
NEUGODNIH VREMENSKIH RAZMER
  ► NARAVNE NESREČE
  ► SUŠA/MOČA
  ► NAMAKANJE
  ► ŽLED (gozdarstvo)
KARTOGRAFSKI PRIKAZI
SPLETNE POVEZAVE
PROJEKTI IN PUBLIKACIJE

AGROMETEOROLOŠKA MREŽA: VREMENSKE POSTAJE IN FENOLOŠKA OPAZOVANJA

Pregled podatkov za lokacijo Kostanjevica na Krki, meteorološka postaja 855712

Pregled senzorjev na lokaciji

ID Ime Zadnja
vrednost
Datum
zadnje
spremembe
Tip
senzorja
3850 Temperatura 2 m ( °C) 20,31 °C 19.8.2017 20:00 50YA
3851 Relativna vlaga 2 m (% RH) 69,95 % RH 19.8.2017 20:00 50YA
3852 Omočenost lista (U) 0 U 19.8.2017 20:00 A730WET
3853 Padavine 0.2 mm (mm) 0 mm 19.8.2017 20:00 Rain-O-Matic

Pregled podatkov zadnjih 24 ur

Zap.
št.
Datum in čas Kostanjevica na Krki
Omočenost
lista
Padavine
0.2
mm
Relativna
vlaga
2
m
Temperatura
2
m
0 19.8.2017 19:00 0 0 69,95 20,31
1 19.8.2017 18:30 0 0 69,47 20,8
2 19.8.2017 18:00 7 0 69,69 21,29
3 19.8.2017 17:30 4 0 69,96 21,81
4 19.8.2017 17:00 5 0 69,98 22,16
5 19.8.2017 16:30 0 0 67,07 22,8
6 19.8.2017 16:00 0 0 63,66 23,44
7 19.8.2017 15:30 0 0 60,14 24,53
8 19.8.2017 15:00 1 0 61,42 24,56
9 19.8.2017 14:30 0 0 61,61 25,12
10 19.8.2017 14:00 0 0 60,72 25,96
11 19.8.2017 13:30 0 0 62 25,75
12 19.8.2017 13:00 0 0 60,84 26,27
13 19.8.2017 12:30 0 0 58,82 27,32
14 19.8.2017 12:00 0 0 55,6 27,86
15 19.8.2017 11:30 0 0 55,07 28,26
16 19.8.2017 11:00 0 0 53,73 28,12
17 19.8.2017 10:30 0 0 56,27 28,31
18 19.8.2017 10:00 0 0 58,26 26,69
19 19.8.2017 09:30 0 0 61,91 26,1
20 19.8.2017 09:00 0 0 68,11 24,79
21 19.8.2017 08:30 0 0 71,38 23,39
22 19.8.2017 08:00 0 0 72,91 22,56
23 19.8.2017 07:30 2 0 78,46 20,94
24 19.8.2017 07:00 9 0 86,55 19,16
25 19.8.2017 06:30 9 0 92,94 17,43
26 19.8.2017 06:00 8 0 99,22 15,67
27 19.8.2017 05:30 7 0 99,46 15,25
28 19.8.2017 05:00 6 0 98,8 15,4
29 19.8.2017 04:30 5 0 98,7 15,54
30 19.8.2017 04:00 3 0 98,11 15,58
31 19.8.2017 03:30 4 0 96,17 16,22
32 19.8.2017 03:00 3 0 97,82 16,41
33 19.8.2017 02:30 3 0 98,08 15,92
34 19.8.2017 02:00 4 0 94,39 16,69
35 19.8.2017 01:30 4 0 89,36 17,76
36 19.8.2017 01:00 5 0 94,69 17,32
37 19.8.2017 00:30 5 0 91,71 17,86
38 19.8.2017 00:00 1 0 83,24 19,01
39 18.8.2017 23:30 1 0 81,11 19,67
40 18.8.2017 23:00 1 0 81,51 19,91
41 18.8.2017 22:30 1 0 83,27 19,67
42 18.8.2017 22:00 0 0 80,83 20,18
43 18.8.2017 21:30 0 0 71,46 21,58
44 18.8.2017 21:00 0 0 66,94 22,56
© 2011 Ministrstvo za kmetijstvo, gozdarstvo in prehrano. Vse pravice pridržane.